Location: ??
(34.9170°N, 135.5016°E)
Time: 23:23:36
(UTC+00:00)

RS-15 - Pass Details

Date: 23 April 2021
Orbit: 1888 x 2157 km, 64.8° (Epoch: 12 May)

Event Time Altitude Azimuth Distance (km) Brightness Sun altitude
Rises 17:42:57 0° 331° (NNW) 5,548 10.6 -28.1°
Reaches altitude 10° 17:46:22 10° 334° (NNW) 4,575 10.1 -27.6°
Maximum altitude 17:58:24 68° 58° (ENE) 2,265 8.4 -25.7°
Drops below altitude 10° 18:10:38 10° 140° (SE) 4,663 10.0 -23.7°
Sets 18:14:07 0° 143° (SE) 5,659 10.5 -23.1°
